TIME,DELAY(SENSOR),PRES,OXYGEN,RAWTEMP,T(OPTODE),TCPHASE,FLUOR,BETA(BETA700),BETA(BETA412),BETA(BETA440),CDOM,C(CSC),ED(ED412.40),ED(ED444.00),ED(ED489.70),ED(ED554.30),LU(LU411.80),LU(LU443.40),LU(LU489.60),LU(LU554.10),COMP,TILTX,TILTY,CHECK
1371613489,5807,755.9600219726562000,41.9168395996093750,655.2609863281250000,4.7838630676269530,54.6554107666015600,52,100,86,80,79,14818,2147756333,2147425554,2148011437,2147875291,2147638061,2147060233,2148253961,2147197970,313,4,13,48128
1371617085,5807,794.1300048828125000,44.8044700622558600,659.3713989257812000,4.6486639976501465,54.2770881652832000,53,105,87,78,80,14818,2147752420,2147427181,2148011008,2147874861,2147641344,2147056082,2148260534,2147200000,108,4,13,12136
1371620685,5808,804.3900146484375000,44.2486686706543000,659.0103759765625000,4.6605467796325680,54.3553085327148440,52,99,88,78,78,14816,2147755081,2147427282,2148011547,2147874514,2147637952,2147054902,2148260443,2147196790,31,4,13,39184
1371624285,5805,827.2399902343750000,45.8089485168457000,661.7764892578125000,4.5694689750671390,54.1587791442871100,53,100,86,79,80,14819,2147753965,2147424539,2148010267,2147875355,2147640722,2147057362,2148259995,2147196635,3522,4,13,59558
1371627885,5808,831.0000000000000000,45.2517089843750000,662.5866088867188000,4.5427799224853520,54.2500381469726560,53,98,86,79,79,14810,2147755529,2147422564,2148011867,2147875858,2147643520,2147054025,2148261202,2147204233,233,4,13,23209
1371631485,5808,832.9199829101562000,45.5793190002441400,663.0985107421875000,4.5259108543396000,54.2079811096191400,53,99,85,79,80,14802,2147752630,2147422326,2148012507,2147874157,2147642633,2147057124,2148258880,2147191990,220,4,13,64777
1371635085,5809,853.2899780273438000,47.8656997680664060,665.0559082031250000,4.4613819122314450,53.9057006835937500,53,98,89,78,80,14812,2147754084,2147424530,2148011620,2147874304,2147639469,2147060196,2148263305,2147198656,32,4,13,25376
1371638685,5807,854.0300292968750000,48.0585517883300800,664.7841796875000000,4.4703431129455570,53.8748092651367200,53,99,88,80,80,14808,2147750564,2147425920,2148013622,2147873792,2147639341,2147055469,2148261494,2147197046,479,4,13,3629
1371642285,5812,860.9099731445312000,48.4989585876464840,666.4174804687500000,4.4164662361145020,53.8356094360351560,52,97,85,79,79,14809,2147756918,2147425764,2148012370,2147876864,2147639405,2147056521,2148263286,2147201188,3219,4,13,65292
1371645885,5808,892.6699829101562000,52.3341217041015600,667.4309082031250000,4.3830261230468750,53.3196601867675800,53,99,80,79,79,14811,2147753581,2147426560,2148009664,2147877019,2147642002,2147058816,2148257755,2147196809,38,4,13,39613
1371649485,5808,890.0000000000000000,52.2616004943847660,667.4479980468750000,4.3824620246887210,53.3298606872558600,52,101,84,79,78,14814,2147753060,2147426578,2148011145,2147870747,2147642706,2147056886,2148256347,2147197366,3217,4,13,12728
1371653085,5807,898.7899780273438000,48.3714294433593750,667.8989868164062000,4.3675751686096190,53.8711395263671900,52,98,83,77,80,14812,2147754614,2147424713,2148009572,2147878299,2147642669,2147060288,2148258660,2147198930,2965,4,13,58661
1371656685,5810,923.5000000000000000,51.6118392944335940,669.4298095703125000,4.3170318603515625,53.4417381286621100,52,97,87,78,79,14813,2147753984,2147425974,2148009490,2147876342,2147642066,2147053659,2148257115,2147198866,3430,4,13,33235
1371660285,5806,919.9199829101562000,52.1120681762695300,669.4379882812500000,4.3167610168457030,53.3741302490234400,52,97,87,80,79,14809,2147751268,2147423972,2148009874,2147874944,2147642240,2147052507,2148259940,2147200338,3341,4,13,60093
1371663885,5810,918.0800170898438000,51.9777107238769500,669.6364135742188000,4.3102087974548340,53.3947792053222660,52,97,87,78,79,14810,2147754331,2147423387,2148010422,2147879131,2147644717,2147058395,2148258285,2147199241,394,4,13,14838
1371667485,5811,947.4199829101562000,54.1099891662597660,672.4871826171875000,4.2160000801086430,53.1440086364746100,52,98,83,78,80,14802,2147755684,2147422418,2148011602,2147875730,2147645394,2147051254,2148261796,2147200146,94,4,13,55806
1371671085,5806,936.9799804687500000,54.2534408569335940,673.4199829101562000,4.1851539611816410,53.1360397338867200,52,97,85,79,80,14805,2147757915,2147425609,2148014171,2147874496,2147639259,2147046573,2148262747,2147197421,177,4,13,25183
1371674685,5807,932.4500122070312000,54.4347305297851560,675.5421142578125000,4.1149458885192870,53.1396484375000000,53,98,88,78,79,14796,2147756681,2147425033,2148012589,2147874861,2147644699,2147049133,2148263890,2147195282,3468,4,13,42474
1371678285,5810,959.4400024414062000,55.2126007080078100,677.8992919921875000,4.0369000434875490,53.0660705566406250,52,105,88,78,79,14794,2147760054,2147425709,2148014098,2147873188,2147643958,2147050395,2148258249,2147195081,246,4,13,35108
1371681885,5809,966.4500122070312000,55.0807991027832000,677.2069702148438000,4.0598258972167970,53.0773086547851560,52,97,81,79,79,14789,2147757833,2147426267,2148013156,2147876818,2147642386,2147056777,2148258953,2147197540,3416,4,13,6311
1371685485,5808,980.3300170898438000,54.9207496643066400,675.0219726562500000,4.1321601867675780,53.0727081298828100,53,98,88,78,80,14787,2147756032,2147428544,2148012498,2147873426,2147643520,2147050642,2148258477,2147197092,3494,4,13,18992
1371689085,5808,973.3200073242188000,54.1855010986328100,674.3372802734375000,4.1548118591308590,53.1601295471191400,52,99,84,79,78,14791,2147756242,2147426971,2148013275,2147873810,2147639798,2147056649,2148261284,2147198912,3527,4,13,40369
1371692685,5812,981.8499755859375000,54.5972785949707000,674.5109863281250000,4.1490650177001950,53.1046791076660160,51,100,87,79,79,14787,2147758582,2147426176,2148013696,2147878729,2147643858,2147051492,2148258166,2147199561,436,4,13,46478
1371696285,5805,975.7800292968750000,54.4079093933105500,674.0753173828125000,4.1634812355041500,53.1276702880859400,53,97,88,78,79,14789,2147755538,2147429942,2148013010,2147875830,2147642880,2147049097,2148263488,2147199643,3592,4,13,44276
1371699885,5810,974.6500244140625000,54.2340698242187500,674.4578247070312000,4.1508259773254395,53.1530685424804700,52,97,85,77,78,14789,2147756772,2147424466,2148013028,2147874925,2147641737,2147057472,2148263488,2147198363,3139,4,13,60663
1371703485,5811,969.4600219726562000,54.2922096252441400,675.3640136718750000,4.1208400726318360,53.1597404479980500,52,97,89,79,80,14787,2147756790,2147426349,2148010368,2147875328,2147648539,2147051181,2148258029,2147199661,3237,4,13,35305
1371707085,5808,980.7100219726562000,54.7612609863281250,675.1903076171875000,4.1265888214111330,53.0916099548339840,52,97,85,78,80,14786,2147754843,2147426742,2148009901,2147875364,2147644251,2147056905,2148262546,2147200585,3546,4,13,29656
1371710685,5810,971.7700195312500000,54.1496086120605500,675.4406127929688000,4.1183071136474610,53.1810989379882800,53,96,89,78,80,14789,2147756278,2147429979,2148011108,2147876964,2147643273,2147054299,2148259072,2147198308,74,4,13,45524
1371714285,5811,965.4400024414062000,54.4142684936523440,676.7822265625000000,4.0738949775695800,53.1600990295410160,52,99,86,78,80,14786,2147756105,2147426349,2148010166,2147874578,2147642852,2147051209,2148262537,2147198656,408,4,13,19022
1371717885,5809,968.7299804687500000,54.9143218994140600,677.0521240234375000,4.0649571418762210,53.0984306335449200,52,97,83,78,79,14786,2147754212,2147425746,2148011940,2147877110,2147646189,2147047268,2148259904,2147197184,162,4,13,44175
1371721485,5811,974.4099731445312000,55.0741500854492200,676.0706787109375000,4.0974478721618650,53.0608482360839840,52,100,87,78,79,14787,2147756269,2147427008,2148011245,2147877476,2147640758,2147051300,2148260251,2147196242,64,4,13,57304
1371725085,5809,962.1900024414062000,54.8927917480468750,677.2468872070312000,4.0585060119628910,53.1044998168945300,52,97,88,80,81,14785,2147756379,2147424530,2148010157,2147877129,2147640704,2147052754,2148267702,2147198381,3181,4,13,34252
1371728685,5811,975.9600219726562000,54.9370918273925800,676.0510864257812000,4.0980992317199710,53.0830497741699200,53,97,87,79,79,14785,2147758272,2147424137,2148011968,2147873865,2147642971,2147054473,2148261074,2147197403,3570,4,13,49524
1371732285,5810,988.2700195312500000,54.7374191284179700,674.3842163085938000,4.1532630920410160,53.0884819030761700,52,101,86,79,79,14782,2147757101,2147426998,2148011017,2147872841,2147644406,2147056256,2148264420,2147195958,3264,4,13,62646
1371735885,5809,985.9000244140625000,53.8564491271972660,673.7025756835938000,4.1758079528808590,53.1931495666503900,51,99,86,78,80,14784,2147757933,2147426322,2148012370,2147874486,2147644397,2147054299,2148261595,2147198052,29,4,13,3897
1371739485,5808,984.1599731445312000,54.6231918334960940,673.9227294921875000,4.1685280799865720,53.0918807983398440,53,97,84,78,79,14783,2147758820,2147425344,2148014656,2147872813,2147641508,2147055552,2148262884,2147197568,184,4,13,36672
1371743085,5810,979.5499877929688000,54.3490715026855500,674.6085205078125000,4.1458401679992680,53.1384506225585940,52,98,86,78,79,14783,2147758500,2147427428,2148012626,2147874971,2147644653,2147052928,2148259099,2147197275,34,4,13,18077
1371746685,5808,979.9699707031250000,54.5145606994628900,674.8541259765625000,4.1377139091491700,53.1235885620117200,53,97,87,78,79,14784,2147759222,2147422665,2148014390,2147874267,2147643565,2147057883,2148262866,2147199570,3596,4,13,56651
1371750285,5808,975.0300292968750000,54.6450195312500000,676.1428833007812000,4.0950579643249510,53.1227302551269500,52,98,85,79,80,14779,2147755949,2147425152,2148013513,2147877211,2147643584,2147054884,2148261632,2147198509,3010,4,13,13529
1371753885,5807,966.5499877929688000,54.6487083435058600,677.5833740234375000,4.0473608970642090,53.1425895690918000,52,99,88,76,79,14773,2147756397,2147423570,2148012470,2147877659,2147645138,2147051821,2148265846,2147197120,167,4,13,23239
1371757485,5807,965.6599731445312000,55.1697883605957000,678.7468872070312000,4.0088181495666500,53.0887298583984400,53,97,86,77,78,14773,2147758025,2147424018,2148012169,2147875821,2147644809,2147059977,2148256082,2147201517,856,4,13,63169
1371759056,5808,968.2700195312500000,55.6926994323730500,678.6541137695312000,4.0118918418884280,53.0154304504394500,52,97,82,78,80,14772,2147757952,2147426669,2148012205,2147876132,2147643794,2147054784,2148262016,2147198637,547,4,13,24580
